Simultaneous Nadir Overpasses (SNOs) Predictions

Prediction of SNOs between FY3D and AQUA Satellite Orbit:

Table of predicted SNOs for the next 14.0 days since TLE Epoch: 2/29/2020
Index Date (FY3D) Time (FY3D) Lat,Lon (FY3D) SZA (FY3D ) Date (AQUA) Time (AQUA) Lat,Lon (AQUA) SZA (AQUA ) Distance(km) Time Diff (sec)
1 02/29/2020 13:48:38 69.84,-160.17 111.86 02/29/2020 13:48:49 69.84,-160.22 111.87 2.07 11
2 02/29/2020 14:38:34 -72.46, 11.66 70.93 02/29/2020 14:37:29 -72.45, 11.60 70.84 2.15 65
3 03/03/2020 06:05:21 68.86, -45.67 111.86 03/03/2020 06:05:37 68.86, -45.64 111.83 1.62 16
4 03/03/2020 06:55:12 -71.78, 126.25 71.22 03/03/2020 06:54:12 -71.78, 126.29 71.17 1.50 60
5 03/05/2020 22:21:44 68.94, 70.34 110.74 03/05/2020 22:22:06 68.94, 70.34 110.71 0.17 22
6 03/05/2020 23:11:34 -71.91,-117.60 72.40 03/05/2020 23:10:40 -71.91,-117.62 72.34 0.61 54
7 03/08/2020 14:38:04 69.13,-173.50 109.49 03/08/2020 14:38:32 69.12,-173.55 109.48 2.38 28
8 03/08/2020 15:28:09 -71.32, -2.77 72.82 03/08/2020 15:27:20 -71.32, -2.72 72.79 2.10 49
9 03/11/2020 06:54:42 68.40, -58.57 109.18 03/11/2020 06:55:15 68.40, -58.57 109.15 0.11 33
10 03/11/2020 07:44:28 -71.60, 113.63 74.18 03/11/2020 07:43:45 -71.60, 113.61 74.13 0.89 43
11 03/13/2020 23:11:18 67.78, 56.54 108.75 03/13/2020 23:11:56 67.78, 56.58 108.70 1.71 38




NCC Satellite Simultaneous Nadir Overpasses (SNOs) Prediction Service
